• In Russia
  • List of Countries
  • For 7 days
  • Water Temperature
  • Satellite Maps
  • Weather Map
  • Weather Widgets
  • user-avatar
    Login

    Hourly Weather Lankaran

    Today, 24 May, Thursday

    Time Temperature Precipitation Wind Pressure Humidity
    00:00 +12°C° 0 mm 2 mps 635 mmHg 52%
    01:00 +10°C° 0 mm 2 mps 635 mmHg 53%
    02:00 +11°C° 0 mm 1 mps 635 mmHg 54%
    03:00 +11°C° 0 mm 1 mps 634 mmHg 53%
    04:00 +12°C° 0 mm 1 mps 634 mmHg 52%
    05:00 +13°C° 0 mm 1 mps 635 mmHg 50%
    06:00 +15°C° 0 mm 1 mps 635 mmHg 49%
    07:00 +16°C° 0.2 mm 1 mps 635 mmHg 46%
    08:00 +17°C° 0.2 mm 2 mps 636 mmHg 43%
    09:00 +19°C° 0 mm 2 mps 636 mmHg 40%
    10:00 +20°C° 0.2 mm 2 mps 636 mmHg 40%
    11:00 +20°C° 0.2 mm 2 mps 636 mmHg 39%
    12:00 +21°C° 0.2 mm 2 mps 636 mmHg 39%
    13:00 +21°C° 0.2 mm 3 mps 636 mmHg 40%
    14:00 +21°C° 0.2 mm 3 mps 635 mmHg 40%
    15:00 +21°C° 0.2 mm 3 mps 635 mmHg 41%
    16:00 +20°C° 0.3 mm 2 mps 634 mmHg 45%
    17:00 +19°C° 0.3 mm 2 mps 634 mmHg 49%
    18:00 +18°C° 0.3 mm 2 mps 634 mmHg 54%
    19:00 +17°C° 0.2 mm 2 mps 633 mmHg 56%
    20:00 +16°C° 0.2 mm 2 mps 633 mmHg 58%
    21:00 +15°C° 0.2 mm 2 mps 633 mmHg 60%
    22:00 +15°C° 0.1 mm 2 mps 632 mmHg 61%
    23:00 +14°C° 0.1 mm 2 mps 632 mmHg 62%

    Tomorrow, 25 May, Friday

    Time Temperature Precipitation Wind Pressure Humidity
    00:00 +14°C° 0.1 mm 2 mps 632 mmHg 63%
    01:00 +14°C° 0.1 mm 1 mps 632 mmHg 64%
    02:00 +13°C° 0.1 mm 1 mps 632 mmHg 64%
    03:00 +13°C° 0.1 mm 1 mps 631 mmHg 65%
    04:00 +14°C° 0.1 mm 1 mps 632 mmHg 63%
    05:00 +15°C° 0.1 mm 1 mps 632 mmHg 61%
    06:00 +16°C° 0.1 mm 1 mps 632 mmHg 59%
    07:00 +19°C° 0.2 mm 1 mps 633 mmHg 54%
    08:00 +19°C° 0.2 mm 2 mps 633 mmHg 48%
    09:00 +21°C° 0.2 mm 2 mps 634 mmHg 43%
    10:00 +23°C° 0.3 mm 2 mps 633 mmHg 41%
    11:00 +24°C° 0.3 mm 3 mps 633 mmHg 39%
    12:00 +24°C° 0.3 mm 3 mps 633 mmHg 37%
    13:00 +25°C° 0 mm 3 mps 633 mmHg 36%
    14:00 +25°C° 0 mm 3 mps 633 mmHg 36%
    15:00 +25°C° 0 mm 3 mps 632 mmHg 35%
    16:00 +22°C° 0.2 mm 3 mps 632 mmHg 41%
    17:00 +21°C° 0.2 mm 3 mps 632 mmHg 47%
    18:00 +20°C° 0.2 mm 3 mps 632 mmHg 53%
    19:00 +19°C° 0.2 mm 3 mps 632 mmHg 54%
    20:00 +18°C° 0.2 mm 3 mps 631 mmHg 56%
    21:00 +16°C° 0.2 mm 3 mps 631 mmHg 58%
    22:00 +16°C° 0.3 mm 2 mps 631 mmHg 59%
    23:00 +16°C° 0.3 mm 2 mps 631 mmHg 60%

    Day after tomorrow, 26 May, Saturday

    Time Temperature Precipitation Wind Pressure Humidity
    00:00 +15°C° 0.3 mm 2 mps 631 mmHg 61%
    01:00 +15°C° 0 mm 2 mps 631 mmHg 62%
    02:00 +14°C° 0 mm 2 mps 631 mmHg 62%
    03:00 +14°C° 0 mm 2 mps 630 mmHg 63%
    04:00 +15°C° 0 mm 2 mps 631 mmHg 62%
    05:00 +16°C° 0 mm 2 mps 631 mmHg 61%
    06:00 +17°C° 0 mm 2 mps 632 mmHg 59%
    07:00 +19°C° 0.1 mm 2 mps 632 mmHg 52%
    08:00 +20°C° 0.1 mm 3 mps 633 mmHg 45%
    09:00 +22°C° 0.1 mm 3 mps 634 mmHg 38%
    10:00 +24°C° 0 mm 3 mps 634 mmHg 37%
    11:00 +25°C° 0 mm 3 mps 634 mmHg 36%
    12:00 +26°C° 0 mm 3 mps 634 mmHg 34%
    13:00 +25°C° 0 mm 3 mps 634 mmHg 35%
    14:00 +25°C° 0 mm 3 mps 634 mmHg 36%
    15:00 +25°C° 0 mm 3 mps 634 mmHg 37%
    16:00 +24°C° 0.4 mm 3 mps 633 mmHg 44%
    17:00 +21°C° 0.4 mm 2 mps 633 mmHg 51%
    18:00 +20°C° 0.4 mm 2 mps 633 mmHg 57%
    19:00 +18°C° 0.2 mm 2 mps 633 mmHg 65%
    20:00 +16°C° 0.2 mm 2 mps 633 mmHg 72%
    21:00 +14°C° 0.2 mm 2 mps 633 mmHg 79%
    22:00 +14°C° 0.2 mm 2 mps 634 mmHg 80%
    23:00 +13°C° 0.2 mm 2 mps 634 mmHg 81%

    27 May, Sunday

    Time Temperature Precipitation Wind Pressure Humidity
    00:00 +13°C° 0.2 mm 2 mps 634 mmHg 82%
    01:00 +12°C° 0.1 mm 2 mps 634 mmHg 82%
    02:00 +12°C° 0.1 mm 2 mps 634 mmHg 82%
    03:00 +12°C° 0.1 mm 2 mps 634 mmHg 83%
    04:00 +11°C° 0 mm 3 mps 635 mmHg 82%
    05:00 +12°C° 0 mm 3 mps 636 mmHg 82%
    06:00 +12°C° 0 mm 3 mps 636 mmHg 81%
    07:00 +13°C° 0 mm 4 mps 637 mmHg 75%
    08:00 +14°C° 0 mm 4 mps 638 mmHg 70%
    09:00 +15°C° 0 mm 4 mps 639 mmHg 64%
    10:00 +16°C° 0 mm 5 mps 639 mmHg 62%
    11:00 +16°C° 0 mm 5 mps 639 mmHg 61%
    12:00 +17°C° 0 mm 5 mps 639 mmHg 59%
    13:00 +16°C° 0 mm 5 mps 639 mmHg 61%
    14:00 +16°C° 0 mm 5 mps 639 mmHg 64%
    15:00 +15°C° 0 mm 5 mps 639 mmHg 66%
    16:00 +14°C° 0 mm 4 mps 639 mmHg 69%
    17:00 +13°C° 0 mm 4 mps 639 mmHg 73%
    18:00 +12°C° 0 mm 3 mps 639 mmHg 76%
    19:00 +12°C° 0 mm 2 mps 639 mmHg 80%
    20:00 +12°C° 0 mm 2 mps 639 mmHg 84%
    21:00 +11°C° 0 mm 1 mps 639 mmHg 88%
    22:00 +10°C° 0 mm 1 mps 639 mmHg 88%
    23:00 +10°C° 0 mm 1 mps 638 mmHg 89%

    28 May, Monday

    Time Temperature Precipitation Wind Pressure Humidity
    00:00 +10°C° 0 mm 1 mps 638 mmHg 89%
    01:00 +10°C° 0 mm 1 mps 638 mmHg 89%
    02:00 +9°C° 0 mm 1 mps 637 mmHg 89%
    03:00 +9°C° 0 mm 1 mps 637 mmHg 89%
    04:00 +10°C° 0 mm 1 mps 637 mmHg 85%
    05:00 +12°C° 0 mm 1 mps 638 mmHg 80%
    06:00 +13°C° 0 mm 1 mps 638 mmHg 75%
    07:00 +15°C° 0 mm 1 mps 638 mmHg 68%
    08:00 +18°C° 0 mm 1 mps 639 mmHg 61%
    09:00 +19°C° 0 mm 2 mps 639 mmHg 54%
    10:00 +20°C° 0 mm 2 mps 639 mmHg 51%
    11:00 +21°C° 0 mm 2 mps 638 mmHg 48%
    12:00 +22°C° 0 mm 3 mps 638 mmHg 46%
    13:00 +22°C° 0 mm 3 mps 638 mmHg 46%
    14:00 +22°C° 0 mm 3 mps 637 mmHg 46%
    15:00 +24°C° 0 mm 3 mps 637 mmHg 47%
    16:00 +22°C° 0 mm 3 mps 637 mmHg 52%
    17:00 +20°C° 0 mm 3 mps 636 mmHg 58%
    18:00 +19°C° 0 mm 2 mps 636 mmHg 63%
    19:00 +18°C° 0 mm 2 mps 636 mmHg 69%
    20:00 +16°C° 0 mm 2 mps 636 mmHg 76%
    21:00 +14°C° 0 mm 1 mps 635 mmHg 82%
    22:00 +14°C° 0 mm 1 mps 635 mmHg 82%
    23:00 +14°C° 0 mm 1 mps 635 mmHg 82%

    29 May, Tuesday

    Time Temperature Precipitation Wind Pressure Humidity
    00:00 +14°C° 0 mm 1 mps 635 mmHg 83%
    01:00 +13°C° 0 mm 1 mps 635 mmHg 82%
    02:00 +13°C° 0 mm 1 mps 634 mmHg 81%
    03:00 +13°C° 0 mm 1 mps 634 mmHg 81%
    04:00 +14°C° 0 mm 1 mps 635 mmHg 76%
    05:00 +15°C° 0 mm 1 mps 635 mmHg 72%
    06:00 +16°C° 0 mm 1 mps 636 mmHg 68%
    07:00 +17°C° 0 mm 2 mps 637 mmHg 62%
    08:00 +18°C° 0 mm 3 mps 637 mmHg 57%
    09:00 +20°C° 0 mm 3 mps 638 mmHg 51%
    10:00 +20°C° 0 mm 4 mps 638 mmHg 51%
    11:00 +20°C° 0 mm 4 mps 638 mmHg 50%
    12:00 +21°C° 0 mm 5 mps 638 mmHg 49%
    13:00 +20°C° 0.1 mm 5 mps 637 mmHg 51%
    14:00 +20°C° 0.1 mm 5 mps 637 mmHg 53%
    15:00 +19°C° 0.1 mm 5 mps 637 mmHg 55%
    16:00 +16°C° 0.1 mm 5 mps 637 mmHg 59%
    17:00 +15°C° 0.1 mm 4 mps 637 mmHg 62%
    18:00 +13°C° 0.1 mm 4 mps 637 mmHg 65%
    19:00 +12°C° 0 mm 3 mps 637 mmHg 68%
    20:00 +10°C° 0 mm 3 mps 637 mmHg 72%
    21:00 +9°C° 0 mm 2 mps 638 mmHg 75%
    22:00 +9°C° 0 mm 2 mps 638 mmHg 72%
    23:00 +9°C° 0 mm 2 mps 637 mmHg 70%
    Show more